Location: Cluny
(50.9333°N, 112.8167°W)
Time: 10:28:52
(UTC-06:00)

Hamsat - Visible Passes

Search period start: 29 August 2016 00:00
Search period end: 08 September 2016 00:00
Orbit: 586 x 620 km, 97.6° (Epoch: 28 August)

Date Brightness Start Highest point End Pass type
(mag) Time Alt. Az. Time Alt. Az. Time Alt. Az.
29 Aug ? 06:02:57 10° NNE 06:07:13 65° ESE 06:11:29 10° S visible
30 Aug ? 04:41:40 10° ENE 04:42:46 11° E 04:43:52 10° E visible
31 Aug ? 04:52:37 10° NE 04:54:56 14° E 04:57:17 10° ESE visible
01 Sep ? 05:04:06 10° NE 05:07:06 18° E 05:10:07 10° SE visible
02 Sep ? 05:15:45 10° NE 05:19:14 23° E 05:22:43 10° SSE visible
03 Sep ? 05:27:32 10° NNE 05:31:21 30° E 05:35:09 10° SSE visible
04 Sep ? 05:39:23 10° NNE 05:43:26 39° E 05:47:28 10° SSE visible
05 Sep ? 05:51:17 10° NNE 05:55:30 51° E 05:59:42 10° S visible
06 Sep ? 06:03:14 10° NNE 06:07:32 67° ESE 06:11:50 10° S visible
07 Sep ? 04:41:43 10° ENE 04:43:06 11° E 04:44:29 10° ESE visible
07 Sep ? 06:15:14 10° NNE 06:19:33 87° E 06:23:54 10° SSW visible
